Location: Blankensee
(53.5126°N, 14.3055°E)
Time: 17:17:06
(UTC+00:00)

Cosmos 1733 - Pass Details

Date: 08 August 2020
Orbit: 505 x 522 km, 82.5° (Epoch: 19 September)

Event Time Altitude Azimuth Distance (km) Brightness Sun altitude
Exits shadow 01:27:15 25° 200° (SSW) 1,060 4.2 -14.3°
Maximum altitude 01:29:21 75° 282° (WNW) 541 3.2 -14.2°
Drops below altitude 10° 01:33:14 10° 8° (N) 1,764 6.9 -13.8°
Sets 01:35:23 0° 11° (N) 2,659 8.1 -13.6°
